GFSSGP_sfc_temp_012.txt.gz
Temp
69 72 72 70 59 56 50 58 68 65 64 71 74 68 63 65 62 54 71 74 73 72 74 75 73 74 75 75 75 75 75 75 75 74 74 74 74 74 73 73 73 74 75 75 75 74 74 73 72
72 78 72 65 54 48 53 66 63 67 71 74 73 71 66 60 68 66 67 75 74 73 73 74 73 74 74 74 74 74 75 75 74 74 74 74 73 73 73 72 72 73 74 74 74 73 72 71 70
74 76 66 59 52 49 52 63 69 71 76 74 69 70 69 64 69 69 72 75 74 72 73 73 72 72 73 73 73 73 74 73 73 74 74 73 73 73 72 72 72 72 73 73 73 72 71 70 69
73 70 66 55 50 59 64 65 72 71 73 74 71 65 72 75 72 72 74 73 70 70 70 70 71 72 73 73 73 73 72 72 72 73 73 73 73 72 71 71 71 72 72 72 72 71 70 69 68
70 65 54 50 54 64 68 72 74 69 68 69 71 64 66 71 74 73 71 72 70 71 71 71 70 71 72 73 73 72 71 71 71 72 72 72 72 72 70 70 70 70 70 71 70 70 69 69 68
63 63 53 47 55 68 71 71 74 69 68 69 68 66 65 72 71 71 71 69 69 69 69 70 71 70 71 71 71 70 70 70 71 71 71 72 71 70 70 70 70 70 70 70 70 69 69 68 68
61 58 53 54 60 64 70 72 69 68 67 66 70 62 66 69 72 72 70 68 68 67 67 67 68 70 69 69 69 69 69 70 70 70 70 70 69 69 70 70 70 70 70 69 70 69 68 68 68
64 61 55 56 58 62 70 70 70 70 63 73 73 60 62 69 72 71 69 67 65 65 65 64 65 66 65 66 68 68 69 69 69 69 69 68 69 69 69 69 69 70 70 70 69 69 68 68 67
67 55 52 58 61 62 72 69 69 69 69 67 68 68 73 70 70 69 66 65 65 67 65 63 64 64 64 65 68 69 69 69 69 69 68 66 65 65 66 67 68 69 69 68 68 68 67 67 66
63 54 58 67 69 66 65 69 70 66 63 62 64 71 71 72 70 68 67 66 66 65 66 66 65 64 64 72 66 65 67 66 65 66 65 64 63 63 67 66 67 68 68 68 67 67 66 65 60
60 60 66 68 70 70 66 67 69 64 58 65 64 66 69 69 69 68 68 70 70 70 70 68 68 66 65 67 64 63 63 63 64 65 64 63 64 63 63 61 62 61 63 61 62 62 60 60 59
61 66 68 66 68 67 67 68 66 63 66 71 72 72 70 68 68 69 69 69 68 70 71 69 68 68 65 65 63 64 64 64 63 64 65 63 61 61 60 60 60 59 59 59 59 58 60 59 61
63 65 69 68 69 65 70 66 67 62 69 72 73 72 70 71 70 72 73 72 69 71 69 65 67 67 66 66 66 65 65 64 64 65 65 63 62 61 60 60 60 59 59 59 59 59 60 60 61
67 67 67 68 65 67 66 63 67 65 67 69 71 69 70 71 72 72 69 71 70 71 65 65 67 67 70 67 66 65 64 64 64 63 64 65 62 61 61 60 60 59 58 59 58 58 58 58 59
67 61 63 61 63 62 67 59 59 68 69 68 69 69 70 71 73 73 73 72 72 69 68 67 67 67 67 68 67 66 64 64 63 63 63 63 62 61 60 58 58 58 58 58 58 58 57 57 59
62 59 52 60 64 65 63 54 63 66 68 65 67 69 70 70 72 74 70 68 72 67 68 66 69 66 65 66 65 66 65 63 62 61 61 62 62 61 58 57 57 57 57 57 56 56 56 55 54
55 48 51 56 65 63 59 55 61 65 67 65 63 63 64 64 65 65 67 65 67 68 66 63 63 63 65 64 62 63 62 61 60 59 59 61 61 60 58 58 57 57 56 54 54 54 52 51 52
49 51 44 54 57 58 55 53 59 61 62 60 59 60 60 60 60 63 63 64 63 61 60 60 62 63 62 59 58 59 59 59 59 59 59 61 62 62 58 57 56 55 54 52 52 51 51 50 50
62 53 52 52 60 59 56 53 55 57 58 59 59 59 59 59 62 62 62 62 61 60 59 59 62 60 62 59 56 56 56 58 58 61 62 61 61 59 56 54 54 53 52 50 51 50 49 49 49
57 55 52 57 63 58 54 52 55 59 57 59 59 59 59 59 60 61 60 59 58 57 57 59 59 59 60 58 56 57 57 61 61 61 61 57 56 57 58 53 51 51 50 50 49 48 47 47 47
54 52 51 52 56 56 56 51 53 58 60 60 59 59 59 58 58 59 59 55 55 55 57 59 60 60 59 61 61 60 60 59 58 56 55 56 56 55 53 52 50 50 49 48 47 47 46 43 45
49 58 57 54 49 44 51 38 50 52 54 57 57 56 57 59 59 60 59 56 55 55 56 59 61 61 61 60 58 58 55 54 53 51 51 52 52 53 53 51 49 48 47 46 45 48 44 44 42
54 58 55 53 47 45 48 41 46 54 51 52 53 55 55 57 58 57 57 57 57 56 56 57 59 60 60 59 59 56 54 51 50 49 49 50 51 53 54 52 50 48 46 45 44 43 42 41 41
61 55 53 51 47 35 47 43 42 46 51 54 55 55 55 54 55 56 57 58 57 56 57 56 58 58 59 57 55 53 51 50 48 48 50 51 50 48 49 50 45 44 43 43 42 41 41 41 43
56 47 33 33 31 32 49 43 42 52 56 55 53 53 55 54 54 55 57 56 57 56 56 58 58 56 55 53 51 50 50 49 53 52 51 47 48 47 46 44 43 43 43 43 42 41 41 41 43
52 47 32 32 29 33 47 38 43 54 57 59 60 56 56 56 56 55 55 55 55 55 55 56 56 54 53 51 51 51 51 52 53 51 49 47 44 43 43 43 43 43 43 42 41 39 38 39 38
51 43 50 38 33 29 38 45 51 55 57 59 58 60 57 53 53 55 54 54 54 53 52 54 55 52 52 52 51 50 53 54 51 48 44 43 44 46 43 43 42 42 42 41 40 38 38 37 36
54 55 40 36 29 29 36 39 40 48 50 53 50 51 52 53 53 53 53 52 52 51 51 54 55 52 52 51 51 52 50 49 46 45 43 43 43 44 43 43 42 41 41 40 39 37 38 36 36
49 46 46 44 34 28 25 34 47 49 51 48 49 50 50 51 52 51 52 51 51 52 52 51 50 50 50 50 50 49 48 47 45 44 43 43 43 43 44 43 42 41 39 39 37 36 37 36 35
52 48 45 30 35 29 29 33 52 50 52 52 52 53 54 54 52 52 50 51 50 50 50 49 49 49 50 49 49 48 47 47 45 44 44 42 42 43 43 44 42 40 39 38 37 36 36 34 33

GFSSGP_sfc_temp_015.txt.gz
Temp
67 71 71 70 58 55 50 57 65 63 61 67 69 66 60 61 59 54 69 71 72 71 73 74 73 74 74 74 74 74 75 75 74 74 74 74 73 73 73 73 73 74 75 75 74 74 73 72 71
71 73 70 63 51 47 52 62 60 64 69 72 72 70 65 60 66 66 67 72 72 72 72 73 73 73 74 74 74 74 75 74 74 74 73 73 73 73 72 72 72 73 74 74 74 73 72 71 70
70 74 65 58 50 45 52 62 63 67 70 72 67 70 67 62 66 67 70 73 72 70 71 72 72 72 73 73 73 73 73 73 73 73 73 73 73 73 72 72 72 73 73 74 73 72 71 70 69
69 68 63 55 51 56 58 63 69 68 70 72 68 64 70 70 68 69 72 72 69 69 70 70 70 71 72 73 73 73 72 72 72 72 73 73 73 72 72 71 71 72 72 73 72 71 70 69 69
64 62 53 51 53 59 64 66 69 67 66 68 69 63 64 68 72 71 70 71 70 69 70 70 69 71 72 73 72 72 71 71 71 72 72 72 72 72 71 70 70 71 71 71 71 70 69 69 68
59 57 50 49 54 63 66 68 68 66 67 67 66 64 61 69 68 69 71 71 73 70 71 71 70 70 71 71 71 70 70 70 70 71 71 72 71 71 70 70 70 70 70 70 70 69 69 69 68
54 53 49 52 56 61 66 70 64 66 65 66 70 59 62 65 66 68 69 70 71 71 69 68 68 69 69 69 69 69 69 70 70 70 70 70 69 69 70 70 70 70 70 70 70 69 68 68 68
60 57 49 54 57 57 70 69 66 68 63 71 71 59 58 64 67 67 66 66 66 65 65 64 65 65 64 65 68 68 69 69 69 69 69 69 69 69 69 69 69 70 70 70 69 69 68 68 67
63 53 48 54 57 61 71 66 67 68 67 66 65 66 70 67 67 63 61 61 61 64 62 62 63 63 63 64 67 68 69 69 68 68 69 66 64 64 65 67 67 69 69 69 68 68 67 66 65
57 48 54 65 66 63 68 65 67 65 61 60 62 67 68 66 64 62 61 60 60 61 62 62 62 62 63 69 64 64 66 65 64 65 64 63 63 62 65 65 67 67 67 67 67 67 66 65 59
56 56 63 67 70 73 68 64 65 61 56 62 62 62 65 65 65 64 64 64 64 65 65 64 63 62 63 66 63 62 62 62 63 64 63 62 63 61 61 60 60 59 63 60 61 60 59 59 58
58 66 66 65 69 67 63 64 63 60 64 67 69 67 66 65 65 66 65 66 65 65 66 66 64 63 62 62 62 62 63 63 63 63 63 60 59 59 59 58 58 57 57 57 57 57 58 58 59
60 61 63 66 68 65 68 63 65 59 64 69 70 69 68 68 67 69 70 70 68 67 68 66 65 63 63 63 62 62 63 63 63 63 63 61 60 59 58 58 58 58 57 57 57 57 57 57 58
65 61 62 64 66 65 64 60 60 59 63 66 68 68 68 69 69 68 68 68 67 70 66 63 64 64 65 63 63 62 62 63 63 62 62 62 60 59 58 57 58 57 56 56 56 56 55 55 56
65 58 60 59 59 60 63 56 56 60 65 65 67 68 67 69 68 69 67 68 68 69 67 62 63 64 63 64 63 62 62 62 61 61 61 61 60 58 58 57 56 56 56 55 55 55 54 54 55
58 55 50 59 61 59 59 52 58 61 63 61 64 64 63 64 65 65 67 66 67 65 61 62 66 63 63 62 61 60 60 59 58 58 58 59 60 58 56 56 55 54 54 54 53 52 52 51 50
51 46 49 54 60 58 56 52 58 59 63 61 57 56 59 57 58 60 62 67 66 65 61 60 62 61 61 60 60 59 58 58 57 57 57 58 59 58 56 54 53 53 53 51 51 51 50 49 49
47 48 42 50 53 56 52 51 54 55 57 55 51 53 54 54 55 59 59 59 61 61 61 61 61 61 60 58 58 58 58 57 56 56 57 58 58 58 55 55 52 52 51 50 49 49 49 48 48
55 50 48 49 56 54 49 48 50 52 52 51 52 53 53 54 56 58 58 58 58 58 60 61 59 59 58 57 55 56 53 54 55 58 60 57 58 56 52 51 51 50 49 48 48 47 47 47 47
55 51 48 53 58 54 50 47 51 54 52 53 53 53 53 54 56 57 57 56 56 57 57 56 57 58 57 56 54 54 54 56 59 59 55 54 53 53 53 49 49 48 48 47 46 45 44 44 45
51 48 48 51 53 53 52 47 49 55 55 55 54 54 55 54 54 56 56 54 54 55 56 58 58 58 58 57 56 58 59 57 54 52 52 52 52 51 50 48 47 46 46 44 43 43 42 41 43
47 54 54 53 48 41 48 34 45 49 49 52 52 50 51 54 56 55 54 53 54 53 55 57 58 58 58 57 56 56 54 53 50 48 48 48 49 49 50 48 47 45 44 43 44 44 40 40 38
51 55 52 50 45 43 45 38 42 49 45 47 48 52 54 54 55 54 54 55 55 54 54 54 56 57 57 55 54 52 51 49 48 47 47 48 49 51 48 49 48 46 43 42 42 40 39 39 38
57 53 50 47 44 34 43 40 39 43 47 48 51 52 55 54 52 54 55 55 53 52 52 52 53 52 52 51 50 49 48 47 47 49 50 50 48 46 49 48 44 44 42 41 40 39 39 38 39
53 45 33 32 30 31 45 40 41 49 52 52 52 52 51 52 51 52 56 56 52 51 51 52 52 51 51 50 50 49 49 49 49 50 49 47 44 43 43 43 42 42 42 41 40 39 38 37 36
47 45 32 33 28 32 44 35 41 51 54 56 54 53 52 50 54 54 53 51 50 51 50 51 51 51 51 51 51 50 49 49 49 48 46 44 42 42 42 42 42 42 42 41 39 38 37 37 35
48 41 47 35 31 29 36 41 50 51 51 53 52 52 49 49 49 50 51 50 49 49 50 50 50 50 51 51 49 49 49 49 47 47 43 42 42 44 42 42 43 43 41 41 39 37 36 36 35
52 53 39 34 28 29 34 36 36 45 48 49 47 47 47 49 49 49 49 49 49 49 50 50 51 51 51 49 48 49 47 47 46 44 42 42 42 45 44 44 43 43 42 40 38 37 36 35 35
47 43 42 40 33 27 24 32 45 47 48 46 45 47 47 47 48 48 51 51 50 50 50 48 48 48 47 47 46 45 45 45 44 42 41 42 42 41 42 43 43 42 41 38 37 37 35 34 33
49 45 43 30 34 28 27 32 48 47 48 49 48 50 48 49 48 51 51 51 52 49 48 48 46 46 46 46 45 45 45 44 42 41 41 41 43 42 42 42 42 40 40 38 37 35 35 33 31

GFSSGP_sfc_temp_018.txt.gz
Temp
62 63 64 64 56 54 49 55 61 61 59 65 68 66 61 61 61 54 69 71 72 70 71 73 73 74 74 74 74 74 75 75 74 74 74 74 73 73 73 73 74 74 75 75 74 74 73 72 71
65 69 65 58 49 45 49 59 60 63 65 66 67 66 64 59 66 65 67 72 72 71 70 72 73 73 74 74 74 74 75 74 74 74 74 73 73 73 73 72 73 74 74 75 74 73 72 71 70
65 70 59 52 46 46 50 61 63 67 69 70 67 69 66 62 67 67 70 72 72 69 70 71 72 72 73 73 73 74 73 73 73 73 74 74 73 73 72 72 72 73 74 74 74 73 71 70 69
65 63 59 51 47 53 58 63 66 66 69 70 67 63 68 69 67 68 71 71 69 68 69 69 70 72 73 73 73 73 72 72 72 72 73 73 73 73 72 71 72 73 73 73 73 72 70 69 69
61 56 48 47 47 55 60 66 68 64 65 66 68 61 62 66 69 70 69 70 69 68 68 69 69 71 72 73 73 72 71 71 71 72 72 72 73 72 71 71 71 72 72 72 72 71 70 69 69
56 54 46 43 49 59 62 67 67 65 66 66 65 61 59 68 68 70 71 70 72 70 70 69 70 71 71 72 71 70 70 70 71 71 71 72 71 71 71 71 70 71 70 70 70 70 69 69 68
53 51 44 48 52 57 63 67 65 67 65 64 67 56 61 64 69 71 72 72 71 70 71 71 69 69 69 69 69 69 69 70 70 70 70 70 69 70 70 70 70 70 70 70 70 69 68 68 68
56 53 44 49 56 54 65 66 70 65 62 70 68 56 59 64 68 70 70 70 70 70 70 68 67 66 65 66 68 68 69 69 69 69 69 68 69 69 69 68 69 70 70 70 69 68 68 67 66
57 50 45 52 56 59 68 67 66 67 66 65 64 63 65 65 67 66 65 65 66 66 65 63 63 63 63 63 66 68 69 68 68 68 68 66 63 64 64 67 68 68 68 68 68 68 67 66 65
56 48 51 59 62 61 68 66 66 64 61 60 59 63 64 63 64 64 63 63 63 62 62 61 61 61 62 67 63 63 65 64 64 64 64 63 62 62 65 65 66 67 66 66 66 66 65 62 59
52 53 59 62 67 69 66 64 63 61 55 59 58 59 60 61 61 61 61 62 62 61 62 61 61 61 61 63 61 61 62 62 62 63 62 62 62 61 61 59 59 58 63 58 59 59 58 59 58
54 61 63 64 68 65 64 64 62 60 63 65 65 63 61 60 61 61 61 61 61 61 63 62 61 61 61 61 61 61 61 61 61 62 63 60 59 58 58 57 56 56 56 57 57 56 57 57 57
60 64 64 64 65 61 66 63 61 59 61 66 66 64 63 63 62 64 66 65 62 61 62 62 62 61 62 61 60 60 61 62 62 62 62 59 57 56 56 56 56 56 56 55 55 55 56 55 56
64 62 61 62 61 61 62 59 60 58 61 62 64 63 63 64 64 62 63 62 63 64 62 62 62 62 62 61 63 60 61 61 62 60 60 60 58 56 57 56 56 55 54 54 54 54 53 53 54
63 58 59 59 57 57 61 54 53 56 62 61 63 63 61 63 61 62 62 62 63 64 62 60 61 61 60 60 60 59 60 61 60 59 59 59 58 56 56 54 54 53 53 53 53 53 52 52 53
57 54 48 56 58 56 57 48 57 55 61 57 59 60 61 60 61 62 64 62 62 60 61 62 63 60 60 60 59 60 59 58 58 57 56 57 57 56 54 54 52 52 52 54 51 50 50 50 49
51 45 46 51 57 56 55 47 52 55 58 54 54 56 56 56 56 57 58 60 60 60 60 60 60 60 60 59 59 57 58 57 56 55 56 56 56 56 54 55 54 55 52 49 50 49 48 47 48
45 46 40 46 50 50 48 44 48 50 54 50 49 50 51 51 56 58 57 58 58 59 61 60 60 60 59 58 57 56 58 56 55 56 57 56 56 57 55 55 52 50 49 47 47 47 47 47 46
52 49 47 45 53 48 44 44 46 48 48 47 48 48 49 50 56 57 56 57 57 58 60 60 59 59 58 56 54 53 53 54 54 54 56 57 56 52 50 48 48 48 46 45 45 45 45 45 45
51 49 46 49 53 49 47 44 47 49 48 48 48 48 49 50 53 55 55 55 56 57 57 57 58 57 57 55 53 54 53 53 55 54 51 51 50 50 50 47 46 45 45 45 43 44 42 43 43
49 48 45 47 50 49 47 43 45 50 51 52 51 51 51 51 51 53 54 53 53 52 53 56 56 56 56 57 54 54 54 52 50 49 48 48 49 48 47 47 46 45 44 45 43 42 40 39 41
46 52 52 49 45 39 45 34 42 45 47 48 49 48 49 51 53 53 54 52 53 51 52 54 55 55 56 54 53 52 50 48 46 46 45 46 48 48 48 49 46 45 44 43 43 42 39 39 37
49 53 51 47 43 41 42 37 38 46 43 45 47 48 48 49 52 53 55 53 50 51 50 52 53 53 52 51 51 48 46 46 46 46 46 46 47 50 50 48 45 43 42 41 40 39 38 38 37
54 51 48 44 41 33 40 38 36 40 45 46 48 50 50 49 48 50 52 52 51 52 53 51 50 50 50 50 49 48 48 47 46 46 46 47 46 44 45 45 42 41 41 40 39 38 38 37 37
50 44 32 31 30 30 42 38 40 48 49 50 49 49 50 48 48 49 50 52 52 50 49 50 50 49 50 50 50 49 49 48 47 47 46 45 43 42 41 41 43 41 41 41 40 38 37 36 35
45 44 32 32 27 31 41 35 41 49 52 53 52 50 49 48 50 50 50 47 47 49 49 49 50 49 50 50 49 48 48 46 46 46 45 44 43 41 41 41 42 42 41 40 40 38 38 38 36
45 39 45 34 31 28 34 40 46 47 48 50 49 49 47 47 47 47 48 47 48 48 48 48 49 49 50 49 47 46 46 45 45 44 43 41 41 43 41 40 42 41 41 41 40 38 37 36 37
48 50 38 33 28 29 31 33 35 42 45 47 46 45 45 46 46 47 47 48 48 48 50 51 52 49 48 46 45 45 44 45 44 42 41 40 40 41 41 43 40 41 41 40 38 38 37 36 34
45 41 39 38 32 26 22 31 42 47 48 46 45 46 46 46 46 47 47 48 49 50 52 50 48 47 46 45 45 44 43 43 42 41 40 40 40 41 41 40 40 41 41 38 37 36 36 34 33
46 42 41 30 32 27 27 31 45 47 47 46 45 47 46 47 46 47 47 49 51 50 49 47 45 46 45 45 44 43 43 42 41 40 40 39 39 40 39 41 42 41 38 36 35 35 35 33 32

GFSSGP_sfc_temp_024.txt.gz
Temp
77 88 92 88 74 76 71 72 78 71 69 74 77 72 71 72 68 61 78 83 83 81 81 81 73 74 74 74 74 74 75 75 75 74 74 74 74 74 74 74 75 75 76 76 75 75 74 73 72
90 86 89 86 70 67 71 75 73 73 74 74 71 72 70 67 74 72 76 81 80 80 83 84 73 74 74 74 74 74 75 75 75 74 74 74 74 74 74 74 74 75 75 75 75 74 73 72 71
87 87 83 78 73 68 72 75 74 76 79 78 71 75 67 67 72 71 76 78 78 81 84 83 73 73 73 74 74 74 74 74 74 74 74 74 74 74 74 73 73 74 75 75 74 73 72 71 70
87 86 84 72 69 73 73 76 77 76 76 78 78 64 72 73 70 76 77 79 78 79 84 74 71 72 73 74 73 73 73 72 73 73 74 74 74 74 73 73 73 74 74 74 73 72 71 70 69
89 85 73 70 69 73 78 80 79 76 77 78 77 71 69 74 80 81 77 74 71 74 81 81 70 72 73 73 73 72 72 72 72 73 73 74 74 73 72 72 72 73 73 72 72 71 70 70 69
80 82 70 67 69 73 79 82 79 78 78 79 74 73 68 76 76 75 77 74 72 80 81 80 72 71 70 72 71 71 71 71 72 72 72 73 72 72 72 71 71 71 71 71 71 70 70 69 69
77 76 70 70 68 70 74 82 78 74 76 74 79 68 67 71 75 77 79 77 79 82 81 79 81 76 70 70 70 70 70 71 71 71 71 70 70 70 71 71 71 71 71 71 70 69 69 69 68
82 77 69 71 69 65 75 76 77 68 72 79 81 69 61 72 75 77 78 79 80 80 79 78 79 81 80 79 69 69 69 70 70 70 70 69 70 70 70 70 70 70 70 70 69 69 68 68 68
81 72 69 69 70 71 79 73 76 80 75 74 74 76 78 75 76 75 73 74 75 76 75 76 82 81 81 82 76 70 70 69 69 71 69 70 83 81 79 68 68 69 68 68 68 68 67 68 70
76 72 71 78 78 75 77 74 75 74 74 72 71 75 74 72 73 73 72 69 71 70 72 73 77 78 79 80 78 79 80 82 82 82 80 84 80 81 80 73 67 67 68 67 67 67 69 75 83
76 73 76 77 81 80 78 76 81 76 71 76 74 67 68 69 70 71 72 71 71 72 72 71 75 76 78 79 81 82 83 82 81 79 80 80 81 81 83 83 83 82 72 84 80 81 81 77 78
71 77 77 79 81 78 77 81 76 80 79 81 81 76 72 70 70 76 74 78 77 76 79 79 79 76 77 81 81 80 81 81 79 79 78 79 79 80 81 83 83 81 83 80 80 81 77 76 76
72 75 77 78 78 78 79 78 77 77 79 83 79 76 75 75 78 80 81 81 81 79 79 78 78 77 77 77 78 78 77 76 76 77 76 77 79 79 80 79 81 80 81 79 79 78 77 76 76
76 76 76 75 78 78 75 74 79 76 80 78 76 76 77 78 79 80 79 80 80 81 78 78 78 77 78 78 76 76 75 74 71 70 68 67 70 75 79 79 79 80 79 78 77 75 75 75 75
76 71 75 74 76 74 79 72 69 72 76 76 76 77 78 80 80 80 80 80 80 81 79 76 76 77 76 75 73 70 68 66 68 67 67 65 67 71 76 77 77 75 74 74 74 73 74 74 74
71 72 66 71 76 72 76 66 69 70 73 75 76 75 75 76 78 79 80 81 83 81 77 74 73 72 72 70 69 64 63 65 66 66 65 66 66 67 72 70 69 70 71 71 72 71 71 71 71
68 64 65 66 73 74 74 67 69 70 74 73 74 74 75 73 74 75 79 82 82 81 75 72 73 70 65 62 63 64 64 67 66 64 65 63 64 67 68 69 68 69 71 69 69 69 68 67 68
63 63 67 65 68 73 70 66 68 69 73 72 74 75 75 74 73 70 74 79 80 78 74 71 69 66 64 63 67 66 67 65 70 68 69 71 71 69 71 70 68 70 69 69 67 65 67 66 66
70 67 65 66 66 67 65 66 65 68 71 70 72 73 73 73 71 70 72 74 75 74 70 69 67 69 69 68 68 69 69 68 69 72 70 69 69 69 69 71 69 68 67 64 64 65 64 63 64
68 66 63 63 65 67 66 63 65 66 67 70 71 72 72 69 68 68 72 71 69 68 69 70 71 73 75 76 76 75 74 74 73 71 69 69 69 69 69 67 67 66 65 63 62 61 61 62 62
65 65 62 63 64 67 67 62 63 63 65 65 67 71 70 68 67 69 70 70 69 69 71 74 75 75 76 75 75 74 73 71 71 72 72 69 69 69 67 66 65 65 64 63 61 60 58 56 60
62 65 66 63 64 60 66 58 62 62 62 64 65 67 64 67 70 71 71 71 72 71 73 76 75 75 74 73 73 72 74 71 69 70 70 72 68 67 67 66 65 63 63 61 61 61 58 56 55
62 66 67 65 65 62 62 60 61 62 60 62 65 67 68 70 72 71 72 72 72 71 72 73 73 72 72 72 72 71 68 69 69 70 67 67 68 67 66 65 63 62 62 61 58 57 56 57 55
67 65 64 65 63 52 61 59 63 62 65 64 65 66 68 70 71 71 71 71 71 71 70 70 71 70 71 70 69 68 66 66 68 67 66 67 67 67 66 64 62 61 60 58 58 57 56 55 54
66 63 53 48 49 48 57 56 63 67 67 68 65 67 68 69 69 68 68 70 70 69 68 69 70 68 69 68 68 67 66 65 64 64 65 63 64 64 63 62 61 61 60 58 58 56 54 54 54
64 63 52 42 45 52 56 52 64 66 70 72 71 70 69 69 69 69 70 70 69 68 68 69 69 68 68 67 66 64 64 68 67 65 64 63 61 61 61 60 60 60 59 58 57 56 53 52 51
60 57 61 51 44 46 57 60 65 64 65 68 69 69 68 69 69 69 70 69 68 68 67 68 69 68 64 59 58 61 62 63 63 62 62 62 60 60 60 59 58 58 56 57 56 55 52 53 51
63 65 53 55 40 41 54 54 60 58 61 65 66 67 68 70 70 69 68 67 68 68 67 68 67 63 59 59 61 61 63 64 63 62 60 59 59 59 58 57 57 57 57 57 55 53 53 51 52
59 58 56 58 52 46 44 57 64 63 65 64 67 68 69 69 69 68 68 67 67 68 67 65 62 58 58 59 61 61 63 63 62 60 60 59 58 57 56 56 55 55 55 54 53 52 52 51 51
63 61 60 51 47 49 47 54 64 65 67 69 68 69 71 70 69 68 67 66 66 66 65 59 61 56 55 62 62 62 63 62 61 60 59 58 56 57 56 55 54 54 53 51 47 50 51 50 49

GFSSGP_sfc_temp_027.txt.gz
Temp
80 89 96 92 76 77 73 77 85 69 73 78 81 77 72 75 70 63 81 82 85 84 86 80 73 74 74 75 75 75 75 75 75 75 75 75 75 75 75 75 75 75 76 76 75 75 74 73 72
95 94 93 87 72 69 75 84 77 73 78 78 79 78 77 71 78 74 75 83 85 84 82 80 73 73 74 74 74 75 75 75 75 75 75 75 75 74 74 74 74 75 75 75 75 74 73 72 71
91 94 85 79 75 70 73 79 77 78 82 82 76 82 73 72 78 78 82 82 81 80 81 80 72 73 74 74 74 74 74 74 74 74 75 75 75 74 74 74 74 75 75 75 75 74 72 71 70
90 89 86 73 72 79 78 77 74 80 82 83 79 69 75 77 76 81 84 82 81 81 77 72 71 72 74 73 73 73 73 73 73 74 74 74 74 74 73 73 74 74 74 74 73 72 71 70 70
92 88 75 73 74 79 83 80 80 78 76 82 83 73 73 80 82 81 83 82 78 73 74 76 70 72 73 73 73 72 72 72 73 73 73 74 73 73 72 72 72 73 73 73 72 71 71 70 69
82 85 72 70 75 79 83 86 82 75 77 78 79 78 75 84 82 83 84 78 73 73 72 78 73 72 72 71 71 71 71 72 72 72 73 73 72 72 72 72 72 72 71 71 71 70 70 70 69
79 79 72 75 73 74 79 80 78 79 76 76 82 71 75 78 84 82 77 69 69 70 71 76 76 73 70 69 70 70 70 71 71 71 71 71 71 71 71 71 71 71 71 71 71 70 69 69 69
85 81 74 75 69 64 81 82 82 81 71 82 79 65 73 81 83 81 76 68 70 67 75 76 77 78 78 77 69 69 69 70 70 70 70 70 70 71 71 70 70 70 70 70 70 69 69 69 69
88 74 71 74 67 73 82 78 82 84 78 76 77 79 83 82 80 78 74 68 69 72 76 75 79 81 80 77 73 71 70 70 70 71 70 70 82 79 78 69 69 69 69 69 69 69 70 70 71
79 73 75 81 78 63 81 80 78 77 65 71 76 81 81 79 78 75 74 73 73 73 74 77 76 78 80 82 80 80 79 80 81 81 80 83 81 81 80 74 69 69 69 69 69 70 71 71 82
79 73 80 81 82 79 80 80 81 75 70 73 77 73 74 76 76 76 75 74 73 74 74 76 77 79 81 81 82 83 84 83 82 81 80 80 82 82 82 83 81 81 74 81 79 80 82 78 78
75 80 81 83 84 82 79 81 78 66 55 68 84 78 76 75 75 77 77 76 75 74 78 82 81 79 81 83 84 84 83 82 79 77 78 78 80 78 80 82 83 80 82 79 81 81 78 78 78
76 79 81 82 83 82 82 79 78 75 83 87 82 78 78 78 81 83 84 84 81 81 82 81 80 79 80 81 82 81 80 77 79 78 77 78 76 75 78 78 80 80 80 80 79 79 78 77 77
81 80 80 81 81 80 78 78 80 81 86 82 81 81 82 83 84 84 83 83 82 83 81 80 80 80 81 80 78 77 78 76 76 76 75 72 71 72 71 69 69 75 78 78 77 75 74 73 74
79 73 76 78 79 74 80 75 74 80 84 79 80 80 82 84 85 83 83 82 84 84 82 79 78 80 79 76 76 76 74 71 70 72 70 70 69 70 67 66 67 72 72 70 71 70 72 73 75
73 74 66 75 78 80 78 67 74 81 81 79 80 81 82 81 83 83 85 85 86 84 81 78 80 77 76 71 66 64 64 69 71 70 69 67 66 63 65 66 67 68 71 73 72 72 71 71 70
70 63 66 68 80 78 77 69 75 80 81 79 79 78 80 80 82 83 85 86 86 84 79 76 75 73 68 63 63 64 68 70 68 66 65 65 67 68 69 70 70 71 72 71 71 69 68 68 68
61 64 68 67 75 78 74 72 76 79 80 78 80 80 79 78 79 81 83 86 86 84 78 75 72 70 68 65 66 69 68 69 69 69 72 73 73 72 74 71 70 70 70 70 68 65 67 66 66
71 68 68 72 74 73 72 73 75 78 79 78 79 79 79 79 80 79 81 82 83 77 73 71 68 70 72 73 73 72 70 72 73 75 73 73 73 72 72 73 71 70 68 66 66 65 63 63 65
71 68 68 71 74 71 72 71 74 75 77 78 78 78 79 80 76 77 78 79 79 72 71 73 72 72 73 72 73 77 75 75 76 74 72 73 72 72 72 68 68 68 66 65 64 63 60 61 63
70 67 67 67 71 73 72 68 69 73 76 77 80 81 81 79 75 75 76 71 71 69 68 72 73 72 75 78 78 78 77 73 73 73 73 71 71 71 70 68 67 66 65 64 63 62 59 57 60
64 71 71 68 65 60 73 57 67 70 70 71 73 76 78 77 77 77 76 68 68 69 70 71 71 78 78 78 77 74 75 70 73 73 72 73 70 69 70 69 67 65 64 62 62 64 59 57 55
63 72 70 70 68 64 66 62 52 71 68 70 73 74 74 76 77 76 77 76 73 70 71 77 78 78 76 77 76 74 72 71 72 72 69 70 70 70 69 68 66 64 63 62 61 59 58 58 55
73 69 68 69 67 55 65 63 63 67 71 72 73 73 74 76 76 77 77 77 76 76 75 75 75 75 75 74 73 71 69 69 69 67 67 69 68 68 68 67 64 63 62 61 61 60 57 54 54
71 66 53 50 51 50 65 61 66 75 75 76 72 73 74 75 75 74 73 74 74 73 72 73 74 72 72 71 70 69 67 66 62 65 67 64 65 64 64 62 61 61 61 61 61 57 54 55 54
67 67 53 44 46 53 64 56 67 75 77 78 76 75 74 74 74 74 74 74 73 72 72 73 73 71 71 70 69 68 67 66 68 67 66 64 63 62 62 61 60 60 60 60 57 56 55 54 53
66 60 68 57 52 49 59 67 71 71 72 75 74 73 72 73 74 73 75 74 73 72 71 72 72 72 70 68 67 65 61 63 64 64 64 64 62 63 62 60 59 59 59 58 57 56 54 54 53
67 71 57 58 44 43 58 60 64 65 67 71 72 72 73 74 74 74 75 73 73 73 71 72 72 70 68 66 64 63 60 64 65 64 62 61 61 61 59 58 58 57 57 58 57 55 55 53 51
63 61 62 63 58 47 47 59 70 69 70 70 73 74 73 74 74 74 74 74 73 73 71 70 71 68 65 65 62 58 61 64 64 63 62 62 60 60 59 58 57 57 56 57 54 51 51 50 50
69 66 65 52 52 54 51 55 72 71 73 73 73 75 76 76 76 76 74 73 72 71 70 69 67 66 64 63 57 60 65 65 63 62 62 61 59 59 58 57 56 56 56 54 50 50 48 46 48

GFSSGP_sfc_temp_033.txt.gz
Temp
65 67 67 67 53 50 47 56 63 62 66 69 71 68 63 65 62 55 72 71 72 72 73 74 73 74 74 74 74 74 75 75 74 74 74 74 74 74 74 74 74 75 76 76 75 75 75 74 73
71 77 69 62 48 41 49 60 60 65 72 74 74 72 67 62 70 66 67 72 73 72 73 74 73 73 74 74 74 74 75 74 74 74 74 74 74 74 74 74 74 75 75 76 75 75 74 73 72
72 78 60 53 47 46 49 57 61 68 75 72 70 73 69 64 71 72 72 74 74 73 73 74 72 73 73 73 73 73 73 73 73 74 74 74 74 74 74 73 73 74 75 75 75 74 73 71 70
71 66 64 51 49 59 62 62 67 69 70 70 69 63 69 70 71 74 77 74 74 72 73 71 72 72 73 73 73 73 72 72 73 73 74 74 74 74 73 72 73 73 74 74 73 73 72 70 70
68 61 51 48 55 65 70 68 65 62 63 63 66 62 63 71 73 72 71 74 70 70 71 72 71 72 72 73 73 72 72 72 72 72 72 73 73 73 72 71 72 72 72 72 72 72 71 70 70
60 59 46 47 58 68 64 65 66 64 64 63 64 63 64 72 71 70 70 68 70 69 70 71 71 70 71 72 71 71 71 71 71 71 72 72 72 71 71 71 71 71 71 71 71 70 70 70 70
59 55 52 56 59 65 66 65 61 61 63 65 65 56 64 68 66 67 67 67 67 68 68 69 69 69 69 69 69 69 70 70 70 70 70 70 70 70 71 70 71 71 70 70 70 70 70 70 70
64 57 52 58 60 56 61 63 62 57 61 70 72 59 58 61 64 65 65 65 65 66 66 67 68 68 68 69 68 69 69 69 69 70 70 69 69 70 70 70 70 70 70 70 71 70 70 70 70
68 53 52 57 58 55 58 58 63 64 62 66 68 67 63 64 66 64 63 63 63 64 64 66 66 67 68 67 69 69 70 69 69 69 69 67 67 68 69 69 69 70 70 70 70 70 70 69 68
60 51 57 65 62 59 59 60 63 61 58 63 64 65 63 64 63 61 61 60 61 61 61 61 66 66 67 72 67 66 69 67 67 67 66 66 66 66 69 68 68 69 69 69 70 69 69 69 66
62 58 67 71 65 64 60 61 66 61 57 61 59 61 62 61 61 61 61 61 61 63 63 63 66 68 69 69 66 66 66 65 65 66 65 66 68 65 65 64 65 63 67 65 67 69 69 65 63
59 68 72 70 70 66 65 67 66 63 62 65 65 64 67 60 62 63 61 61 61 63 65 66 68 70 70 69 68 67 66 66 65 67 67 65 64 63 64 63 64 66 64 63 63 61 63 63 64
64 69 73 71 71 67 71 65 65 61 63 68 68 69 68 66 62 64 64 64 64 65 68 70 70 70 70 67 66 66 65 66 65 65 66 64 64 62 61 61 61 61 62 63 61 63 61 61 62
70 70 71 73 70 68 66 64 66 65 66 65 68 66 64 68 68 67 66 66 69 70 70 69 69 68 69 68 66 66 65 64 64 64 64 64 62 61 61 59 60 60 61 62 60 62 60 58 59
73 63 68 67 69 62 64 58 60 65 67 65 64 68 71 70 69 68 68 68 70 71 71 68 67 67 67 66 65 63 64 63 63 62 62 61 61 59 59 57 58 59 59 59 59 57 57 56 59
62 61 54 65 67 66 65 53 62 67 66 66 68 70 70 72 71 72 72 73 72 70 69 68 71 65 65 64 61 61 60 60 60 59 59 60 60 59 58 57 57 57 58 57 56 55 55 54 53
55 48 55 61 69 66 62 53 61 68 67 66 66 67 68 68 70 72 73 73 72 70 70 66 66 64 61 60 59 60 60 58 58 57 57 59 61 61 58 57 57 57 56 55 56 53 52 50 50
50 54 50 55 62 63 57 55 62 66 68 66 64 64 66 66 68 72 72 73 71 69 70 66 64 61 61 60 60 59 58 57 57 57 58 61 61 61 58 57 57 56 55 53 53 52 51 50 48
61 57 56 61 67 63 62 58 62 65 66 63 63 65 64 66 69 72 70 72 69 68 65 64 63 61 61 59 58 59 59 57 57 59 60 60 61 60 57 55 55 54 53 52 51 50 49 48 47
62 57 55 63 68 63 62 60 62 65 64 66 65 65 66 66 67 70 67 69 68 66 64 63 63 63 61 61 61 64 59 59 59 59 59 60 59 59 59 56 54 54 52 50 49 48 46 46 45
58 55 57 58 60 60 59 54 56 65 68 68 69 70 70 66 66 67 66 65 64 62 63 63 63 64 63 63 65 63 59 58 56 56 56 58 59 60 57 55 54 52 51 49 48 47 46 43 45
56 63 61 62 54 46 56 42 52 58 61 66 67 66 68 67 68 69 64 63 61 61 61 63 64 64 64 63 62 61 58 57 56 55 56 57 59 59 59 56 52 51 50 49 48 50 46 44 42
57 63 61 60 56 50 50 44 49 57 60 62 63 65 64 67 67 66 63 62 62 62 61 62 63 64 65 66 63 63 56 55 56 56 55 55 56 58 55 52 50 49 48 47 47 46 45 44 42
66 61 60 56 51 40 51 48 47 50 58 63 68 66 67 66 64 64 64 63 62 60 61 61 63 63 64 64 62 59 58 55 54 53 54 54 52 51 52 52 49 49 48 47 46 45 45 43 43
61 52 38 34 34 35 55 49 50 60 62 63 65 66 62 63 60 61 60 60 60 60 60 61 61 61 61 58 57 56 54 54 53 53 51 53 52 49 49 51 50 47 47 47 46 45 44 44 42
56 54 39 31 30 36 53 44 54 64 68 67 66 64 63 63 63 61 61 61 61 60 59 61 61 59 59 57 56 54 54 53 53 52 51 53 52 52 51 50 48 48 48 46 46 44 43 43 41
57 52 57 42 39 33 44 54 60 64 62 58 58 62 61 60 61 62 63 62 60 59 59 59 60 59 58 56 54 53 53 53 52 52 52 53 51 54 50 48 48 48 47 47 46 42 41 41 40
60 62 46 43 34 33 43 45 47 56 58 58 60 59 60 61 61 61 61 61 61 60 60 59 59 59 56 54 53 53 52 52 52 52 55 54 52 52 50 50 50 48 47 46 44 42 42 40 39
55 52 53 52 43 34 30 40 56 57 60 58 60 62 62 62 62 62 61 62 62 61 60 59 58 56 54 53 52 52 52 52 54 55 55 53 53 52 50 50 48 48 47 45 43 42 41 40 39
61 55 52 35 41 40 33 39 59 60 62 62 61 65 63 64 64 63 63 62 62 61 61 59 57 55 54 53 52 51 52 54 55 55 54 53 51 50 49 48 48 48 46 44 42 41 41 40 38